Time,TemperatureF,DewpointF,PressureIn,WindDirection,WindDirectionDegrees,WindSpeedMPH,WindSpeedGustMPH,Humidity,HourlyPrecipIn,Conditions,Clouds,dailyrainin,SoftwareType,DateUTC
2013-01-28 00:16:00,33.5,32.0,30.06,SSW,196,5.0,16.0,94,0.00,,---,0.00,VWS V14.01,2013-01-28 05:16:00,
2013-01-28 00:31:00,33.6,32.1,30.06,South,183,5.0,12.0,94,0.00,,---,0.00,VWS V14.01,2013-01-28 05:31:00,
2013-01-28 00:46:00,33.7,32.2,30.05,SSE,157,7.0,9.0,94,0.00,,---,0.00,VWS V14.01,2013-01-28 05:46:00,
2013-01-28 01:01:00,33.8,32.3,30.05,South,179,4.0,10.0,94,0.00,,---,0.00,VWS V14.01,2013-01-28 06:01:00,
2013-01-28 01:16:00,33.9,32.6,30.03,SSE,165,5.0,11.0,95,0.00,,---,0.00,VWS V14.01,2013-01-28 06:16:00,
2013-01-28 01:31:00,34.1,32.8,30.02,South,175,3.0,10.0,95,0.00,,---,0.00,VWS V14.01,2013-01-28 06:31:00,
2013-01-28 01:46:00,34.8,33.8,30.02,ESE,122,5.0,11.0,96,0.01,,---,0.01,VWS V14.01,2013-01-28 06:46:00,
2013-01-28 02:01:00,35.0,34.0,30.01,SSE,161,7.0,10.0,96,0.01,,---,0.01,VWS V14.01,2013-01-28 07:01:00,
2013-01-28 02:16:00,35.1,34.1,30.00,South,169,6.0,13.0,96,0.01,,---,0.01,VWS V14.01,2013-01-28 07:16:00,
2013-01-28 02:31:00,35.3,34.3,29.99,South,183,4.0,11.0,96,0.02,,---,0.02,VWS V14.01,2013-01-28 07:31:00,
2013-01-28 02:46:00,35.8,34.8,29.99,SSW,201,7.0,13.0,96,0.03,,---,0.03,VWS V14.01,2013-01-28 07:46:00,
2013-01-28 03:01:00,36.3,35.3,29.99,SSW,192,3.0,11.0,96,0.04,,---,0.05,VWS V14.01,2013-01-28 08:01:00,
2013-01-28 03:16:00,36.9,35.9,29.98,SSW,205,6.0,11.0,96,0.04,,---,0.05,VWS V14.01,2013-01-28 08:16:00,
2013-01-28 03:31:00,37.7,36.9,29.97,SW,216,3.0,12.0,97,0.06,,---,0.07,VWS V14.01,2013-01-28 08:31:00,
2013-01-28 03:46:00,38.5,37.7,29.97,SW,221,8.0,14.0,97,0.06,,---,0.08,VWS V14.01,2013-01-28 08:46:00,
2013-01-28 04:01:00,39.0,38.2,29.96,SW,233,17.0,17.0,97,0.06,,---,0.09,VWS V14.01,2013-01-28 09:01:00,
2013-01-28 04:16:00,39.4,38.6,29.96,WSW,241,5.0,19.0,97,0.06,,---,0.11,VWS V14.01,2013-01-28 09:16:00,
2013-01-28 04:31:00,39.1,38.3,29.96,SSW,212,5.0,17.0,97,0.06,,---,0.11,VWS V14.01,2013-01-28 09:31:00,
2013-01-28 04:46:00,39.2,38.4,29.94,SSW,210,5.0,17.0,97,0.05,,---,0.12,VWS V14.01,2013-01-28 09:46:00,
2013-01-28 05:01:00,39.4,38.6,29.95,South,190,8.0,18.0,97,0.05,,---,0.13,VWS V14.01,2013-01-28 10:01:00,
2013-01-28 05:16:00,39.7,38.9,29.94,SSW,211,4.0,15.0,97,0.04,,---,0.13,VWS V14.01,2013-01-28 10:16:00,
2013-01-28 05:31:00,40.0,39.2,29.93,SSW,211,9.0,16.0,97,0.03,,---,0.14,VWS V14.01,2013-01-28 10:31:00,
2013-01-28 05:46:00,40.4,39.6,29.93,SSW,202,6.0,13.0,97,0.03,,---,0.14,VWS V14.01,2013-01-28 10:46:00,
2013-01-28 06:01:00,40.8,40.0,29.92,SSW,205,3.0,15.0,97,0.03,,---,0.15,VWS V14.01,2013-01-28 11:01:00,
2013-01-28 06:16:00,41.4,40.6,29.92,WSW,238,3.0,15.0,97,0.02,,---,0.15,VWS V14.01,2013-01-28 11:16:00,
2013-01-28 06:31:00,41.9,41.1,29.91,SSW,209,6.0,15.0,97,0.03,,---,0.16,VWS V14.01,2013-01-28 11:31:00,
2013-01-28 06:46:00,42.5,41.7,29.91,SSW,213,8.0,17.0,97,0.02,,---,0.16,VWS V14.01,2013-01-28 11:46:00,
2013-01-28 07:01:00,42.9,42.1,29.91,SSW,205,5.0,15.0,97,0.04,,---,0.18,VWS V14.01,2013-01-28 12:01:00,
2013-01-28 07:16:00,43.1,42.3,29.91,SSW,194,9.0,15.0,97,0.05,,---,0.20,VWS V14.01,2013-01-28 12:16:00,
2013-01-28 07:31:00,43.2,42.4,29.90,SSW,207,5.0,15.0,97,0.06,,---,0.21,VWS V14.01,2013-01-28 12:31:00,
2013-01-28 07:46:00,43.3,42.5,29.91,SSW,197,11.0,15.0,97,0.05,,---,0.21,VWS V14.01,2013-01-28 12:46:00,
2013-01-28 08:01:00,43.4,42.6,29.91,SW,217,7.0,16.0,97,0.05,,---,0.21,VWS V14.01,2013-01-28 13:01:00,
2013-01-28 08:16:00,43.5,42.7,29.91,SSW,200,9.0,14.0,97,0.03,,---,0.21,VWS V14.01,2013-01-28 13:16:00,
2013-01-28 08:31:00,43.7,42.9,29.91,SW,219,5.0,15.0,97,0.02,,---,0.22,VWS V14.01,2013-01-28 13:31:00,
2013-01-28 08:46:00,43.7,42.9,29.92,SSW,211,2.0,13.0,97,0.01,,---,0.22,VWS V14.01,2013-01-28 13:46:00,
2013-01-28 09:01:00,43.9,43.1,29.92,SSW,204,4.0,11.0,97,0.01,,---,0.22,VWS V14.01,2013-01-28 14:01:00,
2013-01-28 09:16:00,44.0,43.2,29.92,SSW,213,5.0,15.0,97,0.01,,---,0.22,VWS V14.01,2013-01-28 14:16:00,
2013-01-28 09:31:00,44.4,43.6,29.93,WSW,237,5.0,13.0,97,0.01,,---,0.22,VWS V14.01,2013-01-28 14:31:00,
2013-01-28 09:46:00,44.3,43.5,29.93,SW,225,7.0,11.0,97,0.00,,---,0.22,VWS V14.01,2013-01-28 14:46:00,
2013-01-28 10:01:00,44.4,43.6,29.93,WSW,239,5.0,12.0,97,0.01,,---,0.23,VWS V14.01,2013-01-28 15:01:00,
2013-01-28 10:16:00,44.5,43.7,29.93,WSW,246,7.0,12.0,97,0.01,,---,0.23,VWS V14.01,2013-01-28 15:16:00,
2013-01-28 10:31:00,44.6,43.8,29.94,WSW,244,4.0,11.0,97,0.01,,---,0.23,VWS V14.01,2013-01-28 15:31:00,
2013-01-28 10:46:00,44.4,43.6,29.94,West,259,3.0,12.0,97,0.01,,---,0.23,VWS V14.01,2013-01-28 15:46:00,
2013-01-28 11:01:00,44.4,43.6,29.94,WSW,242,3.0,12.0,97,0.01,,---,0.23,VWS V14.01,2013-01-28 16:01:00,
2013-01-28 11:16:00,44.8,44.0,29.95,SW,215,5.0,12.0,97,0.00,,---,0.23,VWS V14.01,2013-01-28 16:16:00,
2013-01-28 11:31:00,44.9,44.1,29.96,WSW,247,6.0,9.0,97,0.00,,---,0.23,VWS V14.01,2013-01-28 16:31:00,
2013-01-28 11:46:00,45.1,44.3,29.95,SW,225,8.0,12.0,97,0.00,,---,0.23,VWS V14.01,2013-01-28 16:46:00,
2013-01-28 12:01:00,45.0,44.2,29.95,WSW,241,5.0,12.0,97,0.00,,---,0.23,VWS V14.01,2013-01-28 17:01:00,
2013-01-28 12:16:00,45.1,44.3,29.95,SW,218,8.0,11.0,97,0.00,,---,0.23,VWS V14.01,2013-01-28 17:16:00,
2013-01-28 12:31:00,45.1,44.3,29.95,SW,232,5.0,11.0,97,0.00,,---,0.23,VWS V14.01,2013-01-28 17:31:00,
2013-01-28 12:46:00,45.1,44.3,29.95,SW,220,5.0,11.0,97,0.00,,---,0.23,VWS V14.01,2013-01-28 17:46:00,
2013-01-28 13:01:00,45.3,44.8,29.94,SW,232,3.0,9.0,98,0.00,,---,0.23,VWS V14.01,2013-01-28 18:01:00,
2013-01-28 13:16:00,45.2,44.4,29.94,WSW,240,4.0,11.0,97,0.00,,---,0.23,VWS V14.01,2013-01-28 18:16:00,
2013-01-28 13:31:00,45.0,44.2,29.94,SW,233,3.0,8.0,97,0.00,,---,0.23,VWS V14.01,2013-01-28 18:31:00,
2013-01-28 13:46:00,45.1,44.3,29.95,WSW,245,4.0,6.0,97,0.00,,---,0.23,VWS V14.01,2013-01-28 18:46:00,
2013-01-28 14:01:00,45.3,44.8,29.94,WNW,292,4.0,6.0,98,0.00,,---,0.23,VWS V14.01,2013-01-28 19:01:00,
2013-01-28 14:16:00,44.0,43.5,29.95,WNW,292,1.0,12.0,98,0.00,,---,0.23,VWS V14.01,2013-01-28 19:16:00,
2013-01-28 14:31:00,43.1,42.3,29.95,WNW,299,2.0,7.0,97,0.00,,---,0.23,VWS V14.01,2013-01-28 19:31:00,
2013-01-28 14:46:00,42.4,41.9,29.95,NW,306,4.0,9.0,98,0.00,,---,0.23,VWS V14.01,2013-01-28 19:46:00,
2013-01-28 15:01:00,42.0,41.2,29.95,WNW,298,3.0,9.0,97,0.00,,---,0.23,VWS V14.01,2013-01-28 20:01:00,
2013-01-28 15:16:00,41.8,41.3,29.95,WNW,302,5.0,7.0,98,0.00,,---,0.23,VWS V14.01,2013-01-28 20:16:00,
2013-01-28 15:31:00,41.7,40.9,29.96,WNW,302,2.0,5.0,97,0.00,,---,0.23,VWS V14.01,2013-01-28 20:31:00,
2013-01-28 15:46:00,41.4,40.9,29.97,NNW,338,1.0,6.0,98,0.00,,---,0.23,VWS V14.01,2013-01-28 20:46:00,
2013-01-28 16:01:00,41.0,40.2,29.97,NNW,338,2.0,5.0,97,0.00,,---,0.23,VWS V14.01,2013-01-28 21:01:00,
2013-01-28 16:16:00,40.6,40.1,29.98,NNW,338,1.0,3.0,98,0.00,,---,0.23,VWS V14.01,2013-01-28 21:16:00,
2013-01-28 16:31:00,40.3,39.5,29.99,NNW,338,1.0,3.0,97,0.00,,---,0.23,VWS V14.01,2013-01-28 21:31:00,
2013-01-28 16:46:00,39.9,39.1,30.00,NNW,338,1.0,5.0,97,0.00,,---,0.23,VWS V14.01,2013-01-28 21:46:00,
2013-01-28 17:01:00,39.7,38.9,29.99,NNW,338,2.0,4.0,97,0.00,,---,0.23,VWS V14.01,2013-01-28 22:01:00,
2013-01-28 17:16:00,39.5,39.0,29.99,NNW,338,1.0,3.0,98,0.00,,---,0.23,VWS V14.01,2013-01-28 22:16:00,
2013-01-28 17:31:00,39.0,38.2,29.99,NNW,338,3.0,4.0,97,0.00,,---,0.23,VWS V14.01,2013-01-28 22:31:00,
2013-01-28 17:46:00,38.5,37.7,29.99,NNW,338,2.0,3.0,97,0.00,,---,0.23,VWS V14.01,2013-01-28 22:46:00,
2013-01-28 18:01:00,38.3,37.8,30.00,NNW,338,1.0,2.0,98,0.00,,---,0.23,VWS V14.01,2013-01-28 23:01:00,
2013-01-28 18:16:00,38.1,37.3,30.00,NNW,338,0.0,1.0,97,0.00,,---,0.23,VWS V14.01,2013-01-28 23:16:00,
2013-01-28 18:31:00,37.9,37.4,30.00,NNW,338,1.0,2.0,98,0.00,,---,0.23,VWS V14.01,2013-01-28 23:31:00,
2013-01-28 18:46:00,37.6,36.8,30.00,NNW,338,0.0,2.0,97,0.00,,---,0.23,VWS V14.01,2013-01-28 23:46:00,
2013-01-28 19:01:00,37.6,36.8,30.01,NNW,338,0.0,1.0,97,0.00,,---,0.23,VWS V14.01,2013-01-29 00:01:00,
2013-01-28 19:16:00,37.6,36.8,30.01,NNW,338,0.0,2.0,97,0.00,,---,0.23,VWS V14.01,2013-01-29 00:16:00,
2013-01-28 19:31:00,37.6,37.1,30.01,NNW,338,0.0,3.0,98,0.00,,---,0.23,VWS V14.01,2013-01-29 00:31:00,
2013-01-28 19:46:00,37.3,36.8,30.01,NNW,338,0.0,2.0,98,0.00,,---,0.23,VWS V14.01,2013-01-29 00:46:00,
2013-01-28 20:01:00,37.4,36.9,30.01,NNW,338,0.0,2.0,98,0.00,,---,0.23,VWS V14.01,2013-01-29 01:01:00,
2013-01-28 20:16:00,37.4,36.9,30.01,NNW,338,1.0,4.0,98,0.00,,---,0.23,VWS V14.01,2013-01-29 01:16:00,
2013-01-28 20:31:00,37.2,36.7,30.01,NNW,338,1.0,3.0,98,0.00,,---,0.23,VWS V14.01,2013-01-29 01:31:00,
2013-01-28 20:46:00,37.4,36.9,30.01,NNW,338,1.0,3.0,98,0.00,,---,0.23,VWS V14.01,2013-01-29 01:46:00,
2013-01-28 21:01:00,37.4,36.9,30.00,East,82,2.0,5.0,98,0.00,,---,0.23,VWS V14.01,2013-01-29 02:01:00,
2013-01-28 21:16:00,37.4,36.9,30.00,East,86,2.0,6.0,98,0.00,,---,0.23,VWS V14.01,2013-01-29 02:16:00,
2013-01-28 21:31:00,37.4,36.9,30.01,East,86,0.0,5.0,98,0.00,,---,0.23,VWS V14.01,2013-01-29 02:31:00,
2013-01-28 21:46:00,37.5,37.0,30.00,East,95,2.0,7.0,98,0.00,,---,0.23,VWS V14.01,2013-01-29 02:46:00,
2013-01-28 22:01:00,37.5,37.0,30.00,ENE,75,1.0,8.0,98,0.00,,---,0.23,VWS V14.01,2013-01-29 03:01:00,
2013-01-28 22:16:00,37.7,37.2,29.99,ESE,103,2.0,9.0,98,0.00,,---,0.23,VWS V14.01,2013-01-29 03:16:00,
2013-01-28 22:31:00,37.7,37.2,29.99,East,98,3.0,7.0,98,0.00,,---,0.23,VWS V14.01,2013-01-29 03:31:00,
2013-01-28 22:46:00,37.8,37.3,30.00,East,92,2.0,9.0,98,0.00,,---,0.23,VWS V14.01,2013-01-29 03:46:00,
2013-01-28 23:01:00,37.9,37.4,29.98,East,96,3.0,7.0,98,0.00,,---,0.23,VWS V14.01,2013-01-29 04:01:00,
2013-01-28 23:16:00,38.0,37.5,29.98,ESE,106,3.0,8.0,98,0.00,,---,0.23,VWS V14.01,2013-01-29 04:16:00,
2013-01-28 23:31:00,38.1,37.6,29.98,East,101,5.0,7.0,98,0.00,,---,0.23,VWS V14.01,2013-01-29 04:31:00,
2013-01-28 23:46:00,38.2,37.7,29.96,East,89,6.0,9.0,98,0.00,,---,0.23,VWS V14.01,2013-01-29 04:46:00,